Weather History for KPHX - June, 2013

Change the Weather History Date:

Sunday, June 16, 2013

  Actual Average Record
Temperature  
Mean Temperature 96 °F 91 °F  
Max Temperature 108 °F 104 °F 115 °F (1974)
Min Temperature 84 °F 78 °F 54 °F (1907)
Degree Days  
Heating Degree Days 0 0  
Month to date heating degree days 0 0  
Since 1 June heating degree days 0 0  
Since 1 July heating degree days 881 935  
Cooling Degree Days 31 26  
Month to date cooling degree days 481 384  
Year to date cooling degree days 1579 1270  
Since 1 June cooling degree days 481 384  
Growing Degree Days 46 (Base 50)    
Moisture  
Dew Point 32 °F    
Average Humidity 13    
Maximum Humidity 20    
Minimum Humidity 6    
Precipitation  
Precipitation 0.00 in 0.00 in 0.01 in (1930)
Month to date precipitation 0.00 0.00  
Year to date precipitation 2.61 3.21  
Snow  
Snow 0.00 in - - ()
Month to date snowfall 0.0  
Year to date snowfall 0.0  
Since 1 July snowfall 0.0  
Snow Depth 0.00 in    
Sea Level Pressure  
Sea Level Pressure 29.77 in    
Wind  
Wind Speed 8 mph (WNW)    
Max Wind Speed 18 mph    
Max Gust Speed 25 mph    
Visibility 10 miles    
Events      
T = Trace of Precipitation, MM = Missing Value Source: NWS Daily Summary

Daily Weather History Graph

Daily Weather History Graph

Search for Another Location

Airport or City:

Trip Planner

Search our weather history database for the weather conditions in past years. The results will help you decide how hot, cold, wet, or windy it might be!

Date:

Astronomy

Jun. 16, 2013 Rise Set
Actual Time 5:17 AM MST 7:39 PM MST
Civil Twilight 4:49 AM MST 8:08 PM MST
Nautical Twilight 4:13 AM MST 8:44 PM MST
Astronomical Twilight 3:34 AM MST 9:23 PM MST
Moon 12:36 PM MST (6/16) 12:05 AM MST (6/16)
Length of Visible Light 15h 19m
Length of Day
14h 21m
Waxing Crescent, 51% of the Moon is Illuminated
Jun 16
Waxing Crescent
Jun 23
Full
Jun 29
Last Quarter
Jul 8
New
Jul 15
First Quarter

Hourly Weather History & Observations

Time (MST) Temp. Dew Point Humidity Pressure Visibility Wind Dir Wind Speed Gust Speed Precip Events Conditions
12:51 AM 91.9 °F 28.9 °F 11% 29.74 in 10.0 mi Variable 3.5 mph - N/A   Clear
1:51 AM 90.0 °F 36.0 °F 15% 29.75 in 10.0 mi ENE 5.8 mph - N/A   Clear
2:51 AM 91.0 °F 28.9 °F 11% 29.76 in 10.0 mi North 4.6 mph - N/A   Clear
3:51 AM 87.1 °F 30.9 °F 13% 29.77 in 10.0 mi ESE 4.6 mph - N/A   Clear
4:51 AM 84.9 °F 37.0 °F 18% 29.78 in 10.0 mi East 3.5 mph - N/A   Partly Cloudy
5:51 AM 84.0 °F 39.0 °F 20% 29.79 in 10.0 mi ENE 5.8 mph - N/A   Partly Cloudy
6:51 AM 84.9 °F 39.9 °F 20% 29.81 in 10.0 mi ESE 4.6 mph - N/A   Partly Cloudy
7:51 AM 89.1 °F 37.9 °F 16% 29.83 in 10.0 mi ENE 6.9 mph - N/A   Partly Cloudy
8:51 AM 91.0 °F 35.1 °F 14% 29.84 in 10.0 mi WNW 4.6 mph - N/A   Clear
9:51 AM 95.0 °F 34.0 °F 12% 29.83 in 10.0 mi North 9.2 mph - N/A   Clear
10:51 AM 97.0 °F 35.1 °F 11% 29.83 in 10.0 mi West 3.5 mph - N/A   Clear
11:51 AM 99.0 °F 35.1 °F 11% 29.81 in 10.0 mi Calm Calm - N/A   Clear
12:51 PM 102.9 °F 36.0 °F 10% 29.79 in 10.0 mi West 6.9 mph - N/A   Partly Cloudy
1:51 PM 105.1 °F 30.0 °F 7% 29.77 in 10.0 mi WSW 8.1 mph 19.6 mph N/A   Partly Cloudy
2:51 PM 106.0 °F 25.0 °F 6% 29.75 in 10.0 mi West 13.8 mph 18.4 mph N/A   Partly Cloudy
3:51 PM 105.1 °F 24.1 °F 6% 29.73 in 10.0 mi West 6.9 mph - N/A   Partly Cloudy
4:51 PM 106.0 °F 27.0 °F 6% 29.72 in 10.0 mi West 13.8 mph - N/A   Partly Cloudy
5:51 PM 105.1 °F 27.0 °F 6% 29.70 in 10.0 mi WNW 13.8 mph 18.4 mph N/A   Clear
6:51 PM 104.0 °F 27.0 °F 7% 29.71 in 10.0 mi WNW 13.8 mph - N/A   Clear
7:51 PM 102.9 °F 27.0 °F 7% 29.71 in 10.0 mi WNW 13.8 mph - N/A   Clear
8:51 PM 100.9 °F 28.0 °F 8% 29.73 in 10.0 mi West 10.4 mph - N/A   Clear
9:51 PM 95.0 °F 33.1 °F 11% 29.74 in 10.0 mi SW 4.6 mph - N/A   Clear
10:51 PM 93.9 °F 32.0 °F 11% 29.75 in 10.0 mi West 8.1 mph - N/A   Clear
11:51 PM 93.0 °F 30.9 °F 11% 29.75 in 10.0 mi WSW 9.2 mph - N/A   Clear